{"data":{"norad_id":51467,"intl_designator":"2022-010M","name":"STARLINK-3178","alt_names":[],"object_type":"PAYLOAD","status":"ACTIVE","operator":null,"country":"US","launch_date":"2022-02-03","launch_site_code":"AFETR","launch_vehicle":null,"mission":null,"orbit_class":"UNKNOWN","rcs_meters":null,"size_class":null,"mass_kg":null,"dimensions":null,"purposes":["comms"],"wikipedia_slug":null,"has_3d_model":false,"image_url":null,"decayed_at":null,"tle_current":{"epoch":"2026-09-20T04:48:57.938112Z","epoch_age_seconds":74276,"freshness":"FRESH","line1":"1 51467U 22010M   26263.20067058 -.00002739  00000+0 -72024-4 0  9996","line2":"2 51467  53.1603 117.3841 0001181  86.1631 273.9507 15.33529731255996","mean_motion":15.33529731,"eccentricity":0.0001181,"inclination_deg":53.1603,"raan_deg":117.3841,"arg_perigee_deg":86.1631,"mean_anomaly_deg":273.9507,"bstar":-7.2024e-5,"rev_number":25599,"period_min":93.901016125784,"perigee_km":464.48287738612,"apogee_km":466.09929510009,"semimajor_km":6843.4280862431,"source":"CELESTRAK","updated_at":"2026-09-20T09:00:39.595310Z"}}}